Regional Weather Roundup
Issued by NWS Wakefield, VA

Home | Current Version | Previous Version | Graphics & Text | Print | Product List | Glossary On
Versions: 1 2 3 4 5 6 7 8 9 10 11 12 13 14 15 16 17 18 19 20 21 22 23 24 25 26 27 28 29 30 31 32 33 34 35 36 37 38 39 40 41 42 43 44 45 46 47 48 49 50
000
ASUS41 KAKQ 202215
RWRAKQ

REGIONAL WEATHER ROUNDUP
NATIONAL WEATHER SERVICE WAKEFIELD VA
500 PM EST SAT JAN 20 2018

Note: "fair" indicates few or no clouds below 12,000 feet with no
significant weather and/or obstructions to visibility. * = Denotes
station may not report precipitation (e.g., rain,snow,etc.),
thunder or fog.

VAZ042-051-052>054-056-202300-
NORTHERN VIRGINIA

CITY           SKY/WX    TMP DP  RH WIND       PRES   REMARKS
WASH NATIONAL  MOCLDY    61  31  32 SW9       30.01R
DULLES         MOCLDY    55  32  41 S7        30.00R
FORT BELVOIR   FAIR      58  31  36 S5          N/A
QUANTICO       NOT AVBL
FREDERICKSBRG* FAIR      61  35  36 SW5       30.00R
STAFFORD*      FAIR      61  32  32 SW3       30.05R
WARRENTON      FAIR      60  26  26 S3        30.00R
CULPEPER*      FAIR      60  28  30 SW6       30.01R
MANASSAS*      FAIR      59  33  37 SW3       30.00R
LEESBURG*      FAIR      57  32  38 N3        30.00R
WINCHESTER     FAIR      52  27  37 NW5       30.01R
FRONT ROYAL*   FAIR      61  27  27 E3        29.98R
LURAY*         FAIR      57  32  38 S5        30.01R
$$

VAZ048-049-060>072-079>083-202300-
CENTRAL AND SOUTH CENTRAL VIRGINIA

CITY           SKY/WX    TMP DP  RH WIND       PRES   REMARKS
RICHMOND       MOCLDY    58  34  40 SW8       30.04R
CHESTERFIELD*  NOT AVBL
PETERSBURG*    FAIR      57  32  38 SW3       30.06R
HANOVER        FAIR      58  33  39 SW8       30.05R
TAPPAHANNOCK*  FAIR      59  33  37 S5        30.03R
QUINTON*       FAIR      57  33  39 MISG      30.04R
CHARLOTTSVILLE FAIR      62  30  29 VRB6      30.01R
GORDONSVILLE*  FAIR      60  32  34 SW6       30.01R
ORANGE*        FAIR      61  30  31 CALM      30.01R
LOUISA*        FAIR      60  30  32 SW5       30.06R
BUMPASS*       FAIR      60  30  31 SW5       30.02R
FARMVILLE*     FAIR      60  36  41 SW6       30.04R
CREWE*         FAIR      58  37  46 SW3       30.05R
FORT PICKETT*  FAIR      56  36  47 SW10      30.06R
CHASE CITY*    FAIR      56  35  46 SW3       30.08R
CLARKSVILLE*   FAIR      55  34  44 SW7       30.09R
SOUTH HILL*    FAIR      55  37  51 SW6       30.14R
LAWRENCEVILLE* FAIR      55  33  43 SW6       30.07S
EMPORIA*       FAIR      55  34  44 SW7       30.10R
$$

VAZ088>098-202300-
SOUTHEAST VIRGINIA

CITY           SKY/WX    TMP DP  RH WIND       PRES   REMARKS
NORFOLK        FAIR      59  31  34 W9        30.04R
VIRGINIA BEACH FAIR      57  28  33 SW9       30.04R
NORFOLK NAVAL  FAIR      58  32  37 SW13      30.06R
WEST POINT*    FAIR      53  32  44 SW6       30.06R
SALUDA*        FAIR      57  32  38 SW6       30.03R
NEWPORT NEWS   FAIR      57  32  38 W8        30.05R
LANGLEY AFB    FAIR      56  34  44 SW10      30.04R
FORT EUSTIS    FAIR      57  32  39 W6        30.03R
WILLIAMSBURG*  FAIR      61  34  36 CALM      30.06R
HR EXEC AP*    FAIR      57  33  40 W7        30.07R
FRANKLIN*      FAIR      56  32  40 W6        30.08R
US460-WAKEFLD  FAIR      57  34  41 SW6       30.06R
$$

VAZ020-022-025-037-045-202300-
WEST CENTRAL AND SOUTHWEST VIRGINIA

CITY           SKY/WX    TMP DP  RH WIND       PRES   REMARKS
STAUNTON*      FAIR      55  31  41 SW8       30.05R
WAYNESBORO*    FAIR      55  32  40 SW12G21   30.03S
HOT SPRINGS VA FAIR      44  32  63 W22G32    30.06R
LYNCHBURG      FAIR      58  35  42 W5        30.06R
DANVILLE       FAIR      57  38  48 W13       30.09R
SOUTH BOSTON*  FAIR      57  34  41 S6        30.09R
MARTINSVILLE   FAIR      57  37  46 W3        30.14R
ROANOKE        MOCLDY    58  37  45 W7        30.10R
BLACKSBURG     FAIR      53  38  58 W7        30.14R
DUBLIN*        FAIR      53  39  59 W13G20    30.15R
MARION*        CLOUDY    47  34  62 W17       30.19R
HILLSVILLE*    FAIR      48  37  64 W13G21    30.14R
RICHLANDS*     CLOUDY    46  34  65 SW3       30.17R
WISE*          CLOUDY    46  36  66 SW5       30.18R
ABINGDON*      CLOUDY    49  36  61 W6        30.19R
$$

MDZ021>025-VAZ099-100-202300-
SOUTHERN MARYLAND AND THE DELMARVA PENINSULA

CITY           SKY/WX    TMP DP  RH WIND       PRES   REMARKS
PATUXENT RIVER NOT AVBL
BAY BRIDGE APT FAIR      50  27  40 S6        30.00R
LEONARDTOWN    FAIR      55  32  41 SW3       30.03R
DOVER          FAIR      52  31  45 SW7       29.99R
GEORGETOWN     FAIR      52  22  30 SW7       30.01R
EASTON         PTCLDY    52  25  35 SW5       30.04R
CAMBRIDGE      CLEAR     46  28  49 SE8       30.02R
SALISBURY      FAIR      50  26  39 SW7       30.01R
OCEAN CITY     FAIR      51  24  34 W8        30.02R
WALLOPS ISLAND FAIR      54  25  32 W3        30.03R
ACCOMACK*      FAIR      54  28  36 W3        30.03R
$$

NCZ012>017-030>032-202300-
NORTH CENTRAL AND EASTERN NORTH CAROLINA

CITY           SKY/WX    TMP DP  RH WIND       PRES   REMARKS
ROANOKE RAPIDS FAIR      55  36  47 SW8       30.10R
RALEIGH        FAIR      53  33  46 SW7       30.14R
ELIZABETH CITY FAIR      53  41  63 SW10      30.08R
AHOSKIE*       FAIR      53  32  44 CALM      30.11R
EDENTON*       FAIR      57  27  31 SW8       30.11R
CURRITUCK*     FAIR      57  28  33 SW8       30.08R
KILL DEVIL HLS FAIR      54  27  35 CALM      30.08R
MANTEO         FAIR      50  32  49 SW12      30.09S
CAPE HATTERAS  FAIR      55  42  61 SW13G24   30.13R
TARBORO*       NOT AVBL
GOLDSBORO      FAIR      56  23  27 SW9       30.13R
WASHINGTON     FAIR      58  24  27 SW8       30.12S
GREENVILLE     FAIR      57  23  26 W7        30.14R
NEW BERN       FAIR      60  29  30 W8        30.14R
WILMINGTON     FAIR      56  23  27 SW8       30.17R
$$

VAZ048-202300-
ELSEWHERE

CITY           SKY/WX    TMP DP  RH WIND       PRES   REMARKS
HARRISBURG PA  CLOUDY    42  32  67 CALM      29.98R
BALTIMORE      MOCLDY    56  30  37 SW5       29.98R
ANNAPOLIS      FAIR      41  32  70 SE9       29.99R
ANDREWS AFB    FAIR      57  30  35 W7        29.99R
PHILADELPHIA   MOCLDY    54  28  36 W9        29.98R
HENDERSON NC   FAIR      51  32  47 S7        30.10R
GREENSBORO     FAIR      54  36  50 SW8       30.12R
ROCKY MOUNT    NOT AVBL
$$

VAZ100-202300-
MARINE

STATION/POSITION TIME  TEMP    WIND        PRES    WAVE   SWELL
                       AIR SEA DIR/SP/G            HT/PER HT/PER
                 (UTC) (F)     (DEG/KT/KT) (MB)    (FT/S) (FT/S)
BRANDYWINE LGT   2136   54     260/ 17/ 18 1015.7R
CAPE MAY NJ      2136   42 33  280/  6/ 10 1015.0R
LEWES DE         2136   55 34  270/  6/  9 1015.4R
15NM E FENWICK I 2150   43 40  210/ 14/ 16 1016.3R   3/ 6   2/ 7
OCEAN-CITY-INLET 2136   46 37  230/  6/  8 1016.5R
WACHAPREAGUE VA  2136   55 38  250/  3/  4 1016.7R
THOMAS POINT MD  2200   41 33  160/  7/  8   N/A
GOOSES REEF MD   2150   38     200/ 10/ 12 1016.6R
COVE POINT MD    2136   38     170/  9/ 11 1016.7R
SOLOMONS ISLAND  2136   54 35  250/  6/  7 1015.6R
BISHOPS HEAD MD  2136   37 35  170/  9/  9 1016.6R
PINEY POINT MD   2148          140/  4/  4   N/A
POTOMAC MD       2200   38     140/  4/  4 1015.9
CAMBRIDGE MD     2136   54 33              1016.7R
LEWISETTA VA     2136   45 33   90/  3/  3 1016.1R
RAPPAHANNOCK LGT 2148          190/ 10/ 11 1017.4R
STINGRAY PT      2200   49 34  300/  4/  4 1020.3    0
YORK RVR RNG VA  2148   51     280/ 14/ 14 1017.6R
YORKTOWN VA      2148   58 36  270/  8/ 10 1016.9R
DOMINION TERM VA 2148   49     250/  9/ 11 1017.7R
KIPTOPEKE VA     2148      35  300/  1/  3   N/A
CAPE HENRY VA    2148   59     240/  9/ 14   N/A
WILLOUBY STN VA  2136          240/ 16/ 16 1016.9R
S CRANEY ISL VA  2148   59     240/  7/ 11 1017.2R
CAPE HENRY BUOY  2200      38                N/A     2/12
1ST LANDING BUOY 2200   46 35  280/  8/ 10 1017.5    1
CAPE CHARLES BUO 2151      39                N/A     2/12
64NM E OF VA BCH 2150   53 49  230/ 16/ 17 1018.3R   4/ 5   2/12
DUCK PIER NC     2148   51 40  240/ 12/ 15 1017.9R
44100 DUCK FRF   2145      41                N/A     2/12   2/12
44056 DUCK FRF   2200      40                N/A     1/13
OREGON INLET NC  2136   44 39  200/ 16/ 18 1019.0R
HATTERAS NC      2148   55 49  230/ 14/ 18 1020.1R
DIAMOND SHLS NC  2150   62     240/ 23/ 27 1020.7R   6/ 6   2/10
CAPE LOOKOUT NC  2200          230/ 11/ 17 1021.6R
$$



USA.gov is the U.S. government's official web portal to all federal, state and local government web resources and services.